Weather History for Honolulu, HI

Change the Weather History Date:

Monday, December 17, 2012

  Actual Average Record
Temperature  
Mean Temperature 74 °F 75 °F  
Max Temperature 78 °F 81 °F 88 °F (1992)
Min Temperature 70 °F 68 °F 57 °F (1980)
Degree Days  
Heating Degree Days 0 0  
Month to date heating degree days 0 0  
Since 1 July heating degree days 0 0  
Cooling Degree Days 9 10  
Month to date cooling degree days 192 177  
Year to date cooling degree days 4384 4503  
Growing Degree Days 22 (Base 50)    
Moisture  
Dew Point 66 °F    
Average Humidity 77    
Maximum Humidity 90    
Minimum Humidity 64    
Precipitation  
Precipitation T in 0.12 in 1.47 in (1971)
Month to date precipitation 0.01 1.63  
Year to date precipitation 8.60 15.49  
Snow  
Snow 0.00 in - - ()
Month to date snowfall 0.0  
Since 1 July snowfall 0.0  
Snow Depth 0.00 in    
Sea Level Pressure  
Sea Level Pressure 30.09 in    
Wind  
Wind Speed 19 mph (ENE)    
Max Wind Speed 28 mph    
Max Gust Speed 38 mph    
Visibility 9 miles    
Events Rain    
T = Trace of Precipitation, MM = Missing Value Source: NWS Daily Summary

Daily Weather History Graph

Daily Weather History Graph

Search for Another Location

Airport:

Trip Planner

Search our weather history database for the weather conditions in past years. The results will help you decide how hot, cold, wet, or windy it might be!

Date:

Astronomy

Dec. 17, 2012 Rise Set
Actual Time 7:03 AM HST 5:53 PM HST
Civil Twilight 6:38 AM HST 6:17 PM HST
Nautical Twilight 6:11 AM HST 6:45 PM HST
Astronomical Twilight 5:43 AM HST 7:12 PM HST
Moon 10:49 AM HST (12/17) 10:51 PM HST (12/17)
Length of Visible Light 11h 38m
Length of Day
10h 50m
Waxing Crescent, 26% of the Moon is Illuminated
Dec 17
Waxing Crescent
Dec 19
First Quarter
Dec 28
Full
Jan 4
Last Quarter
Jan 11
New

Hourly Weather History & Observations

Time (HST) Temp. Dew Point Humidity Pressure Visibility Wind Dir Wind Speed Gust Speed Precip Events Conditions
12:53 AM 73.0 °F 64.0 °F 73% 30.10 in 10.0 mi ENE 17.3 mph 25.3 mph 0.00 in   Scattered Clouds
1:53 AM 73.9 °F 64.0 °F 71% 30.09 in 10.0 mi NE 17.3 mph 28.8 mph N/A   Scattered Clouds
2:53 AM 73.9 °F 64.0 °F 71% 30.08 in 10.0 mi ENE 17.3 mph 28.8 mph N/A   Partly Cloudy
3:53 AM 73.0 °F 63.0 °F 71% 30.09 in 10.0 mi NE 18.4 mph 26.5 mph N/A   Partly Cloudy
4:53 AM 73.0 °F 63.0 °F 71% 30.08 in 10.0 mi ENE 16.1 mph 24.2 mph N/A   Scattered Clouds
5:53 AM 73.0 °F 64.0 °F 73% 30.09 in 10.0 mi NE 11.5 mph 24.2 mph 0.00 in   Scattered Clouds
6:53 AM 73.0 °F 63.0 °F 71% 30.10 in 10.0 mi ENE 10.4 mph - N/A   Scattered Clouds
7:53 AM 72.0 °F 66.0 °F 81% 30.11 in 10.0 mi NNE 10.4 mph 16.1 mph 0.00 in   Scattered Clouds
8:53 AM 73.0 °F 66.0 °F 79% 30.13 in 9.0 mi ENE 21.9 mph 34.5 mph 0.00 in Rain Light Rain
9:53 AM 73.9 °F 66.0 °F 76% 30.14 in 10.0 mi ENE 17.3 mph 25.3 mph 0.00 in   Mostly Cloudy
10:53 AM 77.0 °F 64.9 °F 66% 30.13 in 10.0 mi NE 25.3 mph 35.7 mph 0.00 in   Mostly Cloudy
11:53 AM 75.0 °F 68.0 °F 79% 30.12 in 8.0 mi ENE 20.7 mph 29.9 mph 0.00 in Rain Light Rain
2:34 PM 73.4 °F 69.8 °F 88% 30.06 in 5.0 mi ENE 16.1 mph 21.9 mph 0.00 in Rain Light Rain
2:53 PM 73.0 °F 69.1 °F 87% 30.05 in 8.0 mi ENE 15.0 mph 28.8 mph 0.00 in Rain Light Rain
3:00 PM 73.4 °F 69.8 °F 88% 30.05 in 10.0 mi ENE 17.3 mph 23.0 mph 0.00 in Rain Light Rain
3:53 PM 73.0 °F 69.1 °F 87% 30.06 in 8.0 mi NE 20.7 mph 31.1 mph 0.00 in Rain Light Rain
4:11 PM 75.2 °F 68.0 °F 78% 30.06 in 10.0 mi ENE 12.7 mph 26.5 mph 0.00 in Rain Rain
4:53 PM 72.0 °F 68.0 °F 87% 30.07 in 6.0 mi ENE 23.0 mph 28.8 mph 0.00 in Rain Light Rain
5:05 PM 71.6 °F 68.0 °F 88% 30.07 in 7.0 mi ENE 17.3 mph 27.6 mph 0.00 in Rain Light Rain
5:53 PM 71.1 °F 64.9 °F 81% 30.08 in 10.0 mi ENE 24.2 mph 33.4 mph 0.00 in Rain Light Rain
6:00 PM 71.6 °F 64.4 °F 78% 30.08 in 10.0 mi ENE 19.6 mph 29.9 mph 0.00 in   Mostly Cloudy
6:53 PM 72.0 °F 64.9 °F 78% 30.09 in 10.0 mi ENE 13.8 mph 24.2 mph 0.00 in   Mostly Cloudy
7:37 PM 73.4 °F 66.2 °F 78% 30.10 in 10.0 mi ENE 13.8 mph 25.3 mph N/A   Mostly Cloudy
7:44 PM 73.4 °F 66.2 °F 78% 30.10 in 10.0 mi ENE 12.7 mph 20.7 mph N/A   Mostly Cloudy
7:53 PM 71.1 °F 66.0 °F 84% 30.10 in 10.0 mi ENE 16.1 mph 32.2 mph 0.00 in Rain Light Rain
8:53 PM 73.0 °F 64.9 °F 76% 30.10 in 10.0 mi ENE 21.9 mph 31.1 mph 0.00 in   Mostly Cloudy
9:53 PM 73.0 °F 64.0 °F 73% 30.11 in 10.0 mi NE 19.6 mph 27.6 mph 0.00 in   Mostly Cloudy
10:15 PM 69.8 °F 66.2 °F 88% 30.11 in 7.0 mi ENE 13.8 mph 26.5 mph 0.00 in Rain Light Rain
10:51 PM 71.6 °F 64.4 °F 78% 30.11 in 10.0 mi ENE 16.1 mph - 0.00 in   Mostly Cloudy
10:53 PM 72.0 °F 64.9 °F 78% 30.11 in 10.0 mi NE 19.6 mph 25.3 mph 0.00 in   Mostly Cloudy
11:53 PM 72.0 °F 66.0 °F 81% 30.10 in 10.0 mi ENE 20.7 mph 25.3 mph 0.00 in   Scattered Clouds